Location: Unspecified
(51.2667°N, 0.0000°E)
Time: 02:30:25
(UTC+00:00)

PicSat - Visible Passes

Search period start: 25 August 2019 00:00
Search period end: 04 September 2019 00:00
Orbit: 486 x 500 km, 97.5° (Epoch: 24 August)

Date Brightness Start Highest point End Pass type
(mag) Time Alt. Az. Time Alt. Az. Time Alt. Az.
25 Aug ? 19:59:20 10° ENE 20:00:35 12° ENE 20:01:51 10° NE visible
25 Aug ? 21:33:12 68° S 21:33:37 83° WSW 21:37:16 10° NNW visible
26 Aug ? 21:11:17 48° ESE 21:11:51 55° ENE 21:15:25 10° N visible
26 Aug ? 22:45:50 14° W 22:45:50 14° W 22:47:48 10° NW visible
27 Aug ? 20:49:22 29° E 20:50:08 32° ENE 20:53:25 10° N visible
27 Aug ? 22:23:54 23° W 22:23:54 23° W 22:26:46 10° NW visible
28 Aug ? 20:27:27 18° E 20:28:29 20° ENE 20:31:13 10° NNE visible
28 Aug ? 22:01:59 39° W 22:01:59 39° W 22:05:19 10° NNW visible
29 Aug ? 20:05:32 11° E 20:06:54 13° ENE 20:08:39 10° NNE visible
29 Aug ? 21:40:04 71° W 21:40:04 71° W 21:43:39 10° NNW visible
30 Aug ? 21:18:09 65° E 21:18:12 65° ENE 21:21:50 10° N visible
30 Aug ? 22:52:41 12° W 22:52:41 12° W 22:53:48 10° WNW visible
31 Aug ? 20:56:14 36° E 20:56:29 37° ENE 20:59:52 10° N visible
31 Aug ? 22:30:46 20° W 22:30:46 20° W 22:33:00 10° NW visible
01 Sep ? 20:34:18 22° ENE 20:34:48 23° ENE 20:37:43 10° NNE visible
01 Sep ? 22:08:51 32° WNW 22:08:51 32° WNW 22:11:38 10° NNW visible
02 Sep ? 20:12:23 14° ENE 20:13:12 15° ENE 20:15:18 10° NNE visible
02 Sep ? 21:46:55 52° WNW 21:46:55 52° WNW 21:50:00 10° NNW visible
03 Sep ? 21:25:00 65° NNE 21:25:00 65° NNE 21:28:13 10° N visible
